Location: Aix-en-Ergny
(50.5839°N, 1.9996°E)
Time: 03:09:18
(UTC+00:00)

Cosmos 2333 Rocket - Pass Details

Date: 23 October 2019
Orbit: 838 x 864 km, 70.8° (Epoch: 20 November)

Event Time Altitude Azimuth Distance (km) Brightness Sun altitude
Exits shadow 05:21:59 12° 298° (WNW) 2,373 4.0 -11.0°
Maximum altitude 05:24:53 16° 331° (NNW) 2,086 3.9 -10.5°
Drops below altitude 10° 05:28:22 10° 9° (N) 2,498 4.7 -10.0°
Sets 05:31:54 0° 31° (NNE) 3,442 5.7 -9.4°
